Weather in Privolnoe

Russia / Stavropol Krai     45°55′13″N   41°18′23″E
temp.,
°C
wind,
m/s
gust,
m/s
humid.,
%
clouds,
%
prec.,
mm/h
press.,
hPa
HPBL,
m
19 january, tue
tue1900:00−10w2395100 0.0 101921
03:00−9w2395100 0.0 102040
06:00−11sw2294100 0.0 102021
09:00−9ssw0191100 0.0 102021
12:00−5sw489198 0.0 1021462
15:00−5w488399 0.1 1019990
18:00−11w239241 0.0 102221
21:00−12wsw239551 0.0 102321
20 january, wed
wed2000:00−13nw239496 0.0 102329
03:00−15wnw229279 0.0 102420
06:00−16w129531 0.0 102520
09:00−13wnw119465 0.0 102621
12:00−9nnw1189100 0.0 1027252
15:00−8nw1287100 0.1 1026409
18:00−13nne2295100 0.0 102921
21:00−15ne129595 0.1 103020
21 january, thu
thu2100:00−17ene119849 0.0 103020
03:00−17ne1110041 0.0 103120
06:00−18e1110034 0.0 103220
09:00−15se129519 0.0 103320
12:00−9se11890 0.0 1033187
15:00−7ese22890 0.0 1032180
18:00−9ese338930 0.0 103229
21:00−7sse348865 0.0 103259
22 january, fri
fri2200:00−4s358595 0.0 1032126
03:00−4ssw458197 0.0 103198
06:00−6ssw34793 0.0 103040
09:00−4ssw34782 0.0 103180
12:000s25920 0.0 1030167
15:00+1ssw22900 0.0 102946
18:00−2sse12780 0.0 102921
21:00−3se22770 0.0 102921
23 january, sat
sat2300:00−4se22700 0.0 102821
03:00−4sse22660 0.0 102721
06:00−5sse22660 0.0 102721
09:00−4se226913 0.0 102721
12:000se23920 0.0 102696
15:00+1ese23860 0.0 102545
18:00−2ese347734 0.0 102424
21:00−3ese237657 0.0 102421